This is the latest recevied weather packets stored in our database for station/object W9WRP. If no packets are shown the sender has not sent any weather packets the latest 10 day(s).
| Time | Temp. | Humidity | Pressure | Rain* | Wind** | Luminosity | Snow |
|---|---|---|---|---|---|---|---|
| 1788124574 | 38.33° C | 29% | 1013.7 hPa | 0 mm | - | 621 W/m² | - |
| 1788124273 | 38.33° C | 29% | 1013.7 hPa | 0 mm | - | 509 W/m² | - |
| 1788123968 | 40.56° C | 27% | 1014.1 hPa | 0 mm | - | 561 W/m² | - |
| 1788123668 | 38.89° C | 28% | 1014 hPa | 0 mm | - | 682 W/m² | - |
| 1788123360 | 38.89° C | 28% | 1014.1 hPa | 0 mm | - | 465 W/m² | - |
| 1788123056 | 40.56° C | 27% | 1014.3 hPa | 0 mm | - | 152 W/m² | - |
| 1788122755 | 39.44° C | 27% | 1014.5 hPa | 0 mm | - | 720 W/m² | - |
| 1788122454 | 38.89° C | 28% | 1014.3 hPa | 0 mm | - | 741 W/m² | - |
| 1788122150 | 38.89° C | 28% | 1014.5 hPa | 0 mm | - | 738 W/m² | - |
| 1788121844 | 38.89° C | 29% | 1014.4 hPa | 0 mm | - | 706 W/m² | - |
| 1788121538 | 38.89° C | 29% | 1014.7 hPa | 0 mm | - | 709 W/m² | - |
| 1788121234 | 39.44° C | 28% | 1014.6 hPa | 0 mm | - | 712 W/m² | - |
| 1788120933 | 38.89° C | 28% | 1014.9 hPa | 0 mm | - | 710 W/m² | - |
| 1788120629 | 37.78° C | 30% | 1014.8 hPa | 0 mm | - | 708 W/m² | - |
| 1788120325 | 36.67° C | 30% | 1014.8 hPa | 0 mm | - | 717 W/m² | - |
| 1788120023 | 36.67° C | 31% | 1015.1 hPa | 0 mm | - | 141 W/m² | - |
| 1788119719 | 36.67° C | 30% | 1015 hPa | 0 mm | - | 760 W/m² | - |
| 1788119417 | 37.22° C | 30% | 1015.1 hPa | 0 mm | - | 471 W/m² | - |
| 1788119116 | 37.22° C | 30% | 1015.4 hPa | 0 mm | - | 269 W/m² | - |
| 1788118811 | 38.33° C | 29% | 1015.4 hPa | 0 mm | - | 713 W/m² | - |
| 1788118510 | 37.78° C | 29% | 1015.3 hPa | 0 mm | - | 714 W/m² | - |
| 1788118206 | 38.33° C | 29% | 1015.5 hPa | 0 mm | - | 717 W/m² | - |
| 1788117901 | 37.78° C | 29% | 1015.7 hPa | 0 mm | - | 717 W/m² | - |
| 1788117596 | 38.33° C | 29% | 1015.5 hPa | 0 mm | - | 724 W/m² | - |
| 1788117295 | 38.89° C | 28% | 1015.7 hPa | 0 mm | - | 743 W/m² | - |
* Rain latest hour (hover to see other rain measurements)
** Current wind speed in m/s (hover to see current wind gust speed)